Flag for Germany Weather past 2 weeks in Dorsten, North Rhine-Westphalia, Germany

Now
41 °F

Low clouds.


Feels Like: 38 °F
Forecast: 46 / 52 °F
Wind: 5 mph from Southwest

Location: Essen

Current Time: Dec 21, 2014 at 11:51:18 AM

Latest Report: Dec 21, 2014 at 11:00 AM


Visibility: 6 mi

Pressure: 30.40 "Hg

Humidity: 94%

Dew point: 39 °F

Location of DorstenLocation

Historic Weather in Dorsten — Graph

°F

Dorsten temperature yesterday

Maximum temperature yesterday: 44 °F (at 4:00 PM)
Minimum temperature yesterday: 39 °F (at 6:00 AM)
Average temperature yesterday: 41 °F

Past Weeks' High & Low Weather Summary

 TemperatureHumidityPressure
High53 °F (Dec 18, 6:00 PM)100% (Dec 6, 11:00 AM)30.40 "Hg (Dec 6, 11:00 AM)
Low32 °F (Dec 14, 8:00 AM)65% (Dec 7, 3:00 PM)29.38 "Hg (Dec 12, 3:00 PM)
Average41 °F92%29.97 "Hg
* Reported Dec 6 11:00 AM — Dec 21 11:00 AM, Dorsten, Weather by CustomWeather, © 2014

Note: Actual official high and low records may vary slightly from our data, if they occured in-between our weather recording intervals... More about our weather records

Advertising

Dorsten weather history for previous 24 hours

 ConditionsComfort  
Time TempWeatherWind HumidityBarometerVisibility
11:00 AM
Dec 21
41 °FLow clouds.5 mph94%30.40 "Hg6 mi
10:00 AM40 °FFog.6 mph97%30.39 "Hg4 mi
9:00 AM39 °FFog.6 mph97%30.39 "Hg4 mi
8:00 AM39 °FFog.6 mph97%30.39 "Hg4 mi
7:00 AM39 °FFog.5 mph98%30.39 "Hg4 mi
6:00 AM39 °FLow clouds.5 mph97%30.39 "Hg6 mi
5:00 AM39 °FLow clouds.3 mph97%30.38 "Hg7 mi
4:00 AM40 °FOvercast.5 mph94%30.39 "Hg10 mi
3:00 AM39 °FOvercast.3 mph94%30.38 "Hg11 mi
2:00 AM39 °FClear.3 mph96%30.36 "Hg9 mi
1:00 AM39 °FPassing clouds.3 mph92%30.35 "Hg14 mi
12:00 AM40 °FPassing clouds.3 mph92%30.34 "Hg14 mi
11:00 PM
Dec 20
40 °FOvercast.3 mph93%30.31 "Hg11 mi
10:00 PM39 °FLow clouds.3 mph94%30.29 "Hg16 mi
9:00 PM41 °FLow clouds.6 mph87%30.25 "Hg22 mi
8:00 PM41 °FClear.5 mph83%30.21 "Hg19 mi
7:00 PM41 °FPassing clouds.5 mph88%30.17 "Hg12 mi
6:00 PM43 °FOvercast.6 mph81%30.13 "Hg28 mi
5:00 PM41 °FLight rain. Low clouds.7 mph92%30.10 "Hg1 mi
4:00 PM44 °FLight rain. Low clouds.7 mph82%30.08 "Hg6 mi
3:00 PM43 °FLight freezing rain. Low clouds.7 mph90%30.07 "Hg7 mi
2:00 PM43 °FLight rain. Low clouds.9 mph88%30.07 "Hg5 mi
1:00 PM42 °FLight freezing rain. Low clouds.8 mph87%30.09 "Hg5 mi
12:00 PM42 °FOvercast.8 mph85%30.10 "Hg19 mi
11:00 AM41 °FOvercast.9 mph86%30.12 "Hg19 mi
Weather by CustomWeather, © 2014

See weather overviewHow to use our weather pages